Simultaneous Nadir Overpasses (SNOs) Predictions

Prediction of SNOs between GOES-15 and TERRA Satellite Orbit:

Table of predicted SNOs for the next 14.0 days since TLE Epoch: 6/6/2020
Index Date Time (GOES-15) GOES-15 Lat,Lon TERRA Lat,Lon Distance(km) Time Diff (sec)
1 06/07/2020 06:44:57 -0.12,-127.94 0.69,-124.09 437.46 80
2 06/07/2020 19:06:13 0.11,-127.96 0.39,-129.26 147.04 80
3 06/09/2020 18:56:43 0.10,-127.91 -0.27,-126.31 182.65 80
4 06/10/2020 07:18:06 -0.09,-127.87 -0.87,-131.49 412.77 80
5 06/12/2020 07:05:56 -0.09,-127.81 -0.26,-128.54 83.55 80
6 06/14/2020 06:51:08 -0.09,-127.75 0.39,-125.59 245.37 80
7 06/14/2020 19:12:23 0.08,-127.76 0.71,-130.75 340.46 80
8 06/16/2020 19:00:14 0.08,-127.70 0.10,-127.80 12.16 80
9 06/18/2020 18:50:45 0.08,-127.63 -0.48,-124.85 315.26 80
10 06/19/2020 07:12:11 -0.07,-127.59 -0.57,-130.05 279.92 80




NCC Satellite Simultaneous Nadir Overpasses (SNOs) Prediction Service
